RYR5GL EKCH-EGSS

Flight info

Callsign RYR5GL
Flight time 1h 35m
Altitude 36000
Route LANGO DCT KESUR DCT LONAM DCT BINBO DCT AKOKO N866 KUBAX Z150 MEGEL
Aircraft B738/M-SDE2E3FGHIRWXY/LB1

Departure

Time 2026-04-26 19:11
Airport Copenhagen Kastrup Airport (EKCH)

Arrival

Time 2026-04-26 20:46
Airport London Stansted Airport (EGSS)
Time Latitude Longitude Altitude Speed Heading
2026-04-26 18:37 55.62511 12.65468 23 ft 0 kts 22°
2026-04-26 18:59 55.62501 12.65461 23 ft 2 kts 22°
2026-04-26 18:59 55.62486 12.65450 24 ft 2 kts 21°
2026-04-26 18:59 55.62470 12.65440 24 ft 2 kts 14°
2026-04-26 19:00 55.62454 12.65441 27 ft 2 kts 328°
2026-04-26 19:00 55.62442 12.65461 28 ft 2 kts 278°
2026-04-26 19:00 55.62442 12.65489 26 ft 1 kts 266°
2026-04-26 19:00 55.62443 12.65496 26 ft 0 kts 267°
2026-04-26 19:01 55.62443 12.65495 26 ft 0 kts 267°
2026-04-26 19:03 55.62443 12.65493 23 ft 1 kts 267°
2026-04-26 19:03 55.62442 12.65485 23 ft 1 kts 267°
2026-04-26 19:03 55.62442 12.65477 23 ft 1 kts 267°
2026-04-26 19:04 55.62442 12.65473 27 ft 1 kts 267°
2026-04-26 19:04 55.62441 12.65413 23 ft 8 kts 268°
2026-04-26 19:04 55.62439 12.65306 23 ft 9 kts 268°
2026-04-26 19:04 55.62419 12.65214 23 ft 9 kts 212°
2026-04-26 19:05 55.62271 12.65199 23 ft 12 kts 178°
2026-04-26 19:05 55.62195 12.65170 23 ft 11 kts 214°
2026-04-26 19:05 55.62131 12.65090 23 ft 11 kts 214°
2026-04-26 19:06 55.62067 12.65014 27 ft 11 kts 214°
2026-04-26 19:06 55.62005 12.64942 24 ft 11 kts 213°
2026-04-26 19:06 55.61937 12.64863 22 ft 12 kts 211°
2026-04-26 19:06 55.61861 12.64779 23 ft 13 kts 212°
2026-04-26 19:07 55.61781 12.64688 25 ft 15 kts 212°
2026-04-26 19:07 55.61682 12.64574 23 ft 19 kts 214°
2026-04-26 19:07 55.61562 12.64432 26 ft 21 kts 221°
2026-04-26 19:07 55.61442 12.64298 24 ft 20 kts 213°
2026-04-26 19:08 55.61324 12.64163 23 ft 20 kts 213°
2026-04-26 19:08 55.61213 12.64032 23 ft 19 kts 213°
2026-04-26 19:08 55.61103 12.63905 23 ft 18 kts 213°
2026-04-26 19:08 55.60997 12.63788 23 ft 18 kts 213°
2026-04-26 19:09 55.60888 12.63663 25 ft 21 kts 213°
2026-04-26 19:09 55.60753 12.63509 23 ft 24 kts 214°
2026-04-26 19:09 55.60621 12.63340 23 ft 23 kts 220°
2026-04-26 19:09 55.60507 12.63164 23 ft 19 kts 222°
2026-04-26 19:10 55.60418 12.63134 24 ft 14 kts 146°
2026-04-26 19:10 55.60355 12.63262 26 ft 13 kts 125°
2026-04-26 19:10 55.60372 12.63399 27 ft 13 kts 39°
2026-04-26 19:10 55.60480 12.63562 25 ft 40 kts 41°
2026-04-26 19:11 55.60887 12.64191 25 ft 112 kts 41°
2026-04-26 19:11 55.61609 12.65340 62 ft 165 kts 44°
2026-04-26 19:11 55.62487 12.66778 739 ft 172 kts 42°
2026-04-26 19:11 55.63381 12.68206 1585 ft 174 kts 41°
2026-04-26 19:12 55.64266 12.69694 2351 ft 180 kts 47°
2026-04-26 19:12 55.64909 12.71724 2902 ft 200 kts 75°
2026-04-26 19:12 55.64881 12.74236 3423 ft 215 kts 110°
2026-04-26 19:12 55.64031 12.76475 3840 ft 226 kts 142°
2026-04-26 19:13 55.62676 12.77981 4382 ft 233 kts 156°
2026-04-26 19:13 55.61200 12.79278 4969 ft 242 kts 157°
2026-04-26 19:13 55.59630 12.80584 5436 ft 259 kts 157°
2026-04-26 19:13 55.57984 12.81962 6198 ft 257 kts 157°
2026-04-26 19:14 55.56390 12.83294 6828 ft 259 kts 156°
2026-04-26 19:14 55.54732 12.84688 7460 ft 266 kts 156°
2026-04-26 19:14 55.53040 12.86128 8143 ft 273 kts 155°
2026-04-26 19:14 55.52473 12.86587 8355 ft 274 kts 162°
2026-04-26 19:15 55.49463 12.86042 9437 ft 263 kts 223°
2026-04-26 19:15 55.48375 12.83622 10123 ft 252 kts 253°
2026-04-26 19:15 55.47687 12.80744 10772 ft 257 kts 252°
2026-04-26 19:15 55.46954 12.77820 11400 ft 263 kts 252°
2026-04-26 19:16 55.46204 12.74882 12043 ft 268 kts 252°
2026-04-26 19:16 55.45424 12.71855 12698 ft 273 kts 252°
2026-04-26 19:16 55.44627 12.68779 13360 ft 278 kts 252°
2026-04-26 19:16 55.43813 12.65652 14036 ft 282 kts 252°
2026-04-26 19:17 55.42991 12.62508 14638 ft 286 kts 252°
2026-04-26 19:17 55.42147 12.59293 15261 ft 290 kts 251°
2026-04-26 19:17 55.41292 12.56043 15889 ft 294 kts 251°
2026-04-26 19:17 55.40438 12.52803 16518 ft 297 kts 251°
2026-04-26 19:18 55.39559 12.49479 17175 ft 299 kts 251°
2026-04-26 19:18 55.38672 12.46129 17835 ft 302 kts 251°
2026-04-26 19:18 55.37791 12.42811 18501 ft 303 kts 251°
2026-04-26 19:18 55.36890 12.39418 19060 ft 307 kts 251°
2026-04-26 19:19 55.35964 12.35920 19241 ft 324 kts 251°
2026-04-26 19:19 55.34982 12.32207 19280 ft 344 kts 250°
2026-04-26 19:19 55.33954 12.28330 19288 ft 364 kts 250°
2026-04-26 19:19 55.32855 12.24210 19276 ft 375 kts 250°
2026-04-26 19:20 55.31734 12.20038 19334 ft 380 kts 250°
2026-04-26 19:20 55.30980 12.17241 19623 ft 383 kts 250°
2026-04-26 19:20 55.29449 12.11571 20480 ft 383 kts 250°
2026-04-26 19:20 55.28314 12.07374 21048 ft 385 kts 250°
2026-04-26 19:21 55.27159 12.03098 21545 ft 389 kts 250°
2026-04-26 19:21 55.25988 11.98769 22040 ft 392 kts 250°
2026-04-26 19:21 55.24829 11.94490 22535 ft 395 kts 250°
2026-04-26 19:21 55.23643 11.90121 23034 ft 398 kts 250°
2026-04-26 19:22 55.22445 11.85713 23515 ft 401 kts 250°
2026-04-26 19:22 55.21236 11.81276 23962 ft 404 kts 249°
2026-04-26 19:22 55.20029 11.76852 24375 ft 406 kts 249°
2026-04-26 19:22 55.18802 11.72367 24796 ft 408 kts 249°
2026-04-26 19:23 55.17580 11.67911 25206 ft 410 kts 249°
2026-04-26 19:23 55.16338 11.63387 25588 ft 412 kts 249°
2026-04-26 19:23 55.15091 11.58855 25983 ft 414 kts 249°
2026-04-26 19:23 55.13853 11.54361 26355 ft 416 kts 249°
2026-04-26 19:24 55.12591 11.49792 26726 ft 418 kts 249°
2026-04-26 19:24 55.11318 11.45191 27102 ft 420 kts 249°
2026-04-26 19:24 55.08765 11.35995 27803 ft 424 kts 249°
2026-04-26 19:25 55.07465 11.31325 28151 ft 425 kts 249°
2026-04-26 19:25 55.07044 11.29813 28261 ft 426 kts 249°
2026-04-26 19:25 55.04864 11.22009 28817 ft 429 kts 249°
2026-04-26 19:25 55.03563 11.17363 29129 ft 431 kts 248°
2026-04-26 19:26 55.02240 11.12648 29459 ft 433 kts 248°
2026-04-26 19:26 55.00915 11.07936 29853 ft 432 kts 248°
2026-04-26 19:26 54.99592 11.03243 30360 ft 429 kts 248°
2026-04-26 19:26 54.98277 10.98584 30769 ft 427 kts 248°
2026-04-26 19:27 54.96978 10.93987 31082 ft 427 kts 248°
2026-04-26 19:27 54.95655 10.89312 31361 ft 428 kts 249°
2026-04-26 19:27 54.94559 10.84593 31677 ft 423 kts 256°
2026-04-26 19:27 54.93881 10.79631 32026 ft 417 kts 263°
2026-04-26 19:28 54.93381 10.74715 32364 ft 416 kts 264°
2026-04-26 19:28 54.92883 10.69745 32663 ft 416 kts 264°
2026-04-26 19:28 54.92379 10.64768 32966 ft 416 kts 263°
2026-04-26 19:28 54.92039 10.61475 33185 ft 416 kts 263°
2026-04-26 19:29 54.91522 10.56528 33503 ft 415 kts 263°
2026-04-26 19:29 54.91002 10.51625 33801 ft 415 kts 263°
2026-04-26 19:29 54.90474 10.46693 34098 ft 414 kts 263°
2026-04-26 19:29 54.89768 10.40154 34458 ft 414 kts 263°
2026-04-26 19:30 54.89415 10.36890 34601 ft 414 kts 263°
2026-04-26 19:30 54.88878 10.31953 34808 ft 415 kts 263°
2026-04-26 19:30 54.88387 10.27449 35004 ft 415 kts 263°
2026-04-26 19:30 54.88028 10.24169 35150 ft 415 kts 263°
2026-04-26 19:31 54.87311 10.17643 35436 ft 415 kts 263°
2026-04-26 19:31 54.86768 10.12721 35641 ft 415 kts 263°
2026-04-26 19:31 54.86221 10.07783 35850 ft 415 kts 263°
2026-04-26 19:31 54.85672 10.02847 36049 ft 415 kts 263°
2026-04-26 19:32 54.85123 9.97912 36257 ft 415 kts 263°
2026-04-26 19:32 54.84577 9.93039 36306 ft 418 kts 263°
2026-04-26 19:32 54.83387 9.83113 36303 ft 418 kts 261°
2026-04-26 19:33 54.81991 9.73384 36307 ft 414 kts 260°
2026-04-26 19:33 54.80572 9.63706 36310 ft 412 kts 260°
2026-04-26 19:34 54.79183 9.54135 36316 ft 410 kts 260°
2026-04-26 19:34 54.77805 9.44586 36304 ft 410 kts 260°
2026-04-26 19:35 54.76412 9.34952 36299 ft 411 kts 260°
2026-04-26 19:35 54.75018 9.25373 36306 ft 412 kts 260°
2026-04-26 19:36 54.73848 9.17375 36308 ft 414 kts 260°
2026-04-26 19:36 54.72185 9.06081 36307 ft 416 kts 259°
2026-04-26 19:37 54.70740 8.96339 36310 ft 418 kts 259°
2026-04-26 19:37 54.69291 8.86625 36310 ft 419 kts 259°
2026-04-26 19:38 54.67822 8.76839 36312 ft 420 kts 259°
2026-04-26 19:38 54.66353 8.67115 36316 ft 420 kts 259°
2026-04-26 19:39 54.64869 8.57344 36315 ft 419 kts 259°
2026-04-26 19:39 54.63388 8.47656 36319 ft 418 kts 259°
2026-04-26 19:40 54.61900 8.37978 36319 ft 417 kts 259°
2026-04-26 19:40 54.60402 8.28293 36318 ft 416 kts 259°
2026-04-26 19:41 54.58910 8.18706 36326 ft 415 kts 259°
2026-04-26 19:41 54.57658 8.10695 36329 ft 414 kts 259°
2026-04-26 19:42 54.55904 7.99547 36335 ft 413 kts 258°
2026-04-26 19:42 54.54402 7.90052 36336 ft 412 kts 258°
2026-04-26 19:43 54.52882 7.80503 36338 ft 412 kts 258°
2026-04-26 19:43 54.51358 7.70981 36339 ft 412 kts 258°
2026-04-26 19:44 54.49832 7.61504 36340 ft 413 kts 258°
2026-04-26 19:44 54.48287 7.51957 36343 ft 413 kts 258°
2026-04-26 19:45 54.46744 7.42479 36342 ft 414 kts 258°
2026-04-26 19:45 54.45182 7.32936 36341 ft 414 kts 258°
2026-04-26 19:46 54.43621 7.23454 36344 ft 414 kts 258°
2026-04-26 19:46 54.42039 7.13895 36345 ft 414 kts 258°
2026-04-26 19:47 54.40729 7.06022 36343 ft 415 kts 258°
2026-04-26 19:47 54.38863 6.94866 36345 ft 414 kts 258°
2026-04-26 19:48 54.37274 6.85424 36345 ft 414 kts 258°
2026-04-26 19:48 54.35664 6.75910 36350 ft 414 kts 258°
2026-04-26 19:49 54.34059 6.66475 36350 ft 413 kts 258°
2026-04-26 19:49 54.32449 6.57059 36352 ft 412 kts 257°
2026-04-26 19:50 54.30828 6.47636 36352 ft 412 kts 257°
2026-04-26 19:50 54.29210 6.38275 36353 ft 411 kts 257°
2026-04-26 19:51 54.27582 6.28900 36352 ft 410 kts 257°
2026-04-26 19:51 54.25942 6.19514 36351 ft 410 kts 257°
2026-04-26 19:52 54.24311 6.10221 36356 ft 409 kts 257°
2026-04-26 19:52 54.22661 6.00875 36361 ft 409 kts 257°
2026-04-26 19:53 54.21019 5.91618 36361 ft 409 kts 257°
2026-04-26 19:53 54.19357 5.82293 36356 ft 409 kts 257°
2026-04-26 19:54 54.17701 5.73058 36363 ft 408 kts 257°
2026-04-26 19:54 54.16036 5.63814 36363 ft 408 kts 257°
2026-04-26 19:55 54.14354 5.54521 36361 ft 408 kts 257°
2026-04-26 19:55 54.12678 5.45311 36356 ft 408 kts 257°
2026-04-26 19:56 54.10983 5.36038 36358 ft 408 kts 257°
2026-04-26 19:56 54.09292 5.26838 36357 ft 408 kts 256°
2026-04-26 19:57 54.07586 5.17601 36360 ft 408 kts 256°
2026-04-26 19:57 54.05883 5.08426 36361 ft 407 kts 256°
2026-04-26 19:58 54.04173 4.99259 36362 ft 407 kts 256°
2026-04-26 19:58 54.02457 4.90101 36359 ft 407 kts 256°
2026-04-26 19:59 54.00725 4.80907 36360 ft 407 kts 256°
2026-04-26 19:59 53.98997 4.71775 36362 ft 406 kts 256°
2026-04-26 20:00 53.97266 4.62676 36360 ft 406 kts 256°
2026-04-26 20:00 53.95517 4.53524 36367 ft 406 kts 255°
2026-04-26 20:01 53.93775 4.44448 36363 ft 405 kts 255°
2026-04-26 20:01 53.92024 4.35370 36366 ft 405 kts 255°
2026-04-26 20:02 53.90259 4.26262 36357 ft 405 kts 255°
2026-04-26 20:02 53.88799 4.18760 36361 ft 405 kts 255°
2026-04-26 20:03 53.86732 4.08184 36366 ft 405 kts 255°
2026-04-26 20:03 53.84848 3.99161 36351 ft 408 kts 247°
2026-04-26 20:04 53.81642 3.91189 36350 ft 417 kts 232°
2026-04-26 20:04 53.77225 3.84674 36355 ft 422 kts 224°
2026-04-26 20:05 53.72659 3.78491 36359 ft 422 kts 223°
2026-04-26 20:05 53.68080 3.72242 36356 ft 423 kts 224°
2026-04-26 20:06 53.63513 3.65965 36355 ft 423 kts 224°
2026-04-26 20:06 53.58971 3.59720 36359 ft 423 kts 224°
2026-04-26 20:07 53.54401 3.53454 36357 ft 423 kts 223°
2026-04-26 20:07 53.49838 3.47217 36353 ft 423 kts 223°
2026-04-26 20:08 53.45262 3.40978 36350 ft 423 kts 223°
2026-04-26 20:08 53.40688 3.34821 36347 ft 424 kts 220°
2026-04-26 20:09 53.35518 3.29972 36347 ft 429 kts 211°
2026-04-26 20:09 53.30145 3.25554 36340 ft 429 kts 211°
2026-04-26 20:10 53.24843 3.21092 36335 ft 429 kts 211°
2026-04-26 20:10 53.19520 3.16578 36337 ft 427 kts 211°
2026-04-26 20:11 53.14304 3.12160 36331 ft 419 kts 211°
2026-04-26 20:12 53.06519 3.05613 35924 ft 415 kts 211°
2026-04-26 20:12 53.03977 3.03487 35523 ft 410 kts 211°
2026-04-26 20:12 53.01420 3.01348 35165 ft 406 kts 211°
2026-04-26 20:12 52.98930 2.99267 34786 ft 403 kts 211°
2026-04-26 20:13 52.96427 2.97179 34418 ft 400 kts 212°
2026-04-26 20:13 52.94034 2.94871 33977 ft 392 kts 220°
2026-04-26 20:13 52.91968 2.92058 33662 ft 383 kts 226°
2026-04-26 20:13 52.90013 2.89088 33254 ft 379 kts 227°
2026-04-26 20:14 52.88084 2.86136 32904 ft 375 kts 227°
2026-04-26 20:14 52.86807 2.84186 32645 ft 374 kts 226°
2026-04-26 20:14 52.84280 2.80344 32162 ft 369 kts 226°
2026-04-26 20:14 52.83022 2.78442 31920 ft 368 kts 226°
2026-04-26 20:15 52.81131 2.75594 31561 ft 365 kts 226°
2026-04-26 20:15 52.79252 2.72771 31206 ft 362 kts 226°
2026-04-26 20:15 52.77407 2.70006 30863 ft 360 kts 226°
2026-04-26 20:15 52.75555 2.67237 30518 ft 357 kts 226°
2026-04-26 20:16 52.73709 2.64478 30122 ft 355 kts 226°
2026-04-26 20:16 52.71902 2.61782 29749 ft 352 kts 225°
2026-04-26 20:16 52.70091 2.59083 29382 ft 348 kts 225°
2026-04-26 20:16 52.68290 2.56403 29037 ft 344 kts 225°
2026-04-26 20:17 52.66534 2.53792 28662 ft 342 kts 225°
2026-04-26 20:17 52.64771 2.51173 28320 ft 339 kts 225°
2026-04-26 20:17 52.63024 2.48582 27955 ft 336 kts 225°
2026-04-26 20:17 52.61289 2.46009 27608 ft 334 kts 225°
2026-04-26 20:18 52.59581 2.43480 27268 ft 333 kts 225°
2026-04-26 20:18 52.57854 2.40925 26926 ft 333 kts 225°
2026-04-26 20:18 52.56112 2.38347 26598 ft 341 kts 225°
2026-04-26 20:18 52.54334 2.35720 26255 ft 350 kts 225°
2026-04-26 20:19 52.52513 2.33038 25878 ft 350 kts 225°
2026-04-26 20:19 52.50701 2.30377 25510 ft 347 kts 224°
2026-04-26 20:19 52.48921 2.27778 25148 ft 346 kts 224°
2026-04-26 20:19 52.47116 2.25149 24794 ft 344 kts 224°
2026-04-26 20:20 52.45325 2.22542 24449 ft 342 kts 224°
2026-04-26 20:20 52.43567 2.19984 24108 ft 341 kts 224°
2026-04-26 20:20 52.41797 2.17408 23722 ft 339 kts 224°
2026-04-26 20:20 52.40030 2.14840 23318 ft 338 kts 224°
2026-04-26 20:21 52.38294 2.12320 22950 ft 335 kts 224°
2026-04-26 20:21 52.36544 2.09785 22593 ft 333 kts 223°
2026-04-26 20:21 52.34942 2.07129 22226 ft 328 kts 237°
2026-04-26 20:21 52.33887 2.03843 21904 ft 325 kts 247°
2026-04-26 20:22 52.33006 2.00421 21492 ft 327 kts 248°
2026-04-26 20:22 52.32139 1.96970 21101 ft 328 kts 248°
2026-04-26 20:22 52.31266 1.93535 20710 ft 327 kts 247°
2026-04-26 20:22 52.30380 1.90106 20323 ft 327 kts 247°
2026-04-26 20:23 52.29496 1.86723 19939 ft 326 kts 246°
2026-04-26 20:23 52.28599 1.83311 19559 ft 326 kts 246°
2026-04-26 20:23 52.27700 1.79908 19175 ft 326 kts 246°
2026-04-26 20:23 52.26790 1.76483 18801 ft 326 kts 246°
2026-04-26 20:24 52.25897 1.73134 18378 ft 326 kts 246°
2026-04-26 20:24 52.24991 1.69739 17945 ft 326 kts 246°
2026-04-26 20:24 52.24083 1.66340 17535 ft 325 kts 246°
2026-04-26 20:24 52.23182 1.62968 17146 ft 323 kts 246°
2026-04-26 20:25 52.22280 1.59600 16760 ft 322 kts 246°
2026-04-26 20:25 52.21686 1.57382 16508 ft 321 kts 246°
2026-04-26 20:25 52.20497 1.52952 16005 ft 319 kts 246°
2026-04-26 20:25 52.19606 1.49635 15614 ft 315 kts 246°
2026-04-26 20:26 52.18745 1.46436 15244 ft 309 kts 246°
2026-04-26 20:26 52.17891 1.43264 14887 ft 303 kts 246°
2026-04-26 20:26 52.17052 1.40153 14533 ft 297 kts 247°
2026-04-26 20:26 52.16220 1.37075 14199 ft 296 kts 247°
2026-04-26 20:27 52.15390 1.34005 13821 ft 296 kts 247°
2026-04-26 20:27 52.14558 1.30928 13442 ft 296 kts 247°
2026-04-26 20:27 52.13722 1.27843 13070 ft 295 kts 246°
2026-04-26 20:27 52.12901 1.24824 12724 ft 294 kts 246°
2026-04-26 20:28 52.12070 1.21769 12365 ft 294 kts 247°
2026-04-26 20:28 52.11368 1.18680 12143 ft 288 kts 253°
2026-04-26 20:28 52.10840 1.15559 11934 ft 283 kts 256°
2026-04-26 20:28 52.10363 1.12504 11736 ft 280 kts 256°
2026-04-26 20:29 52.09881 1.09426 11547 ft 280 kts 256°
2026-04-26 20:29 52.09392 1.06346 11351 ft 282 kts 256°
2026-04-26 20:29 52.08898 1.03293 11155 ft 284 kts 256°
2026-04-26 20:29 52.08386 1.00165 10979 ft 285 kts 255°
2026-04-26 20:30 52.07874 0.97064 10774 ft 282 kts 255°
2026-04-26 20:30 52.07363 0.93989 10447 ft 282 kts 255°
2026-04-26 20:30 52.06847 0.90902 10124 ft 282 kts 255°
2026-04-26 20:30 52.06332 0.87832 9787 ft 281 kts 255°
2026-04-26 20:31 52.05823 0.84801 9484 ft 280 kts 255°
2026-04-26 20:31 52.05307 0.81736 9186 ft 278 kts 255°
2026-04-26 20:31 52.04795 0.78705 8873 ft 277 kts 255°
2026-04-26 20:31 52.04284 0.75685 8572 ft 276 kts 255°
2026-04-26 20:32 52.03776 0.72684 8313 ft 275 kts 255°
2026-04-26 20:32 52.03277 0.69737 8039 ft 273 kts 255°
2026-04-26 20:32 52.02769 0.66748 7698 ft 274 kts 255°
2026-04-26 20:32 52.02259 0.63762 7397 ft 274 kts 255°
2026-04-26 20:33 52.01751 0.60782 7102 ft 273 kts 255°
2026-04-26 20:33 52.01434 0.57755 6792 ft 272 kts 267°
2026-04-26 20:33 52.01372 0.54708 6502 ft 271 kts 269°
2026-04-26 20:33 52.01325 0.51648 6353 ft 272 kts 268°
2026-04-26 20:34 52.01258 0.48570 6351 ft 273 kts 268°
2026-04-26 20:34 52.01172 0.45508 6248 ft 269 kts 266°
2026-04-26 20:34 52.01009 0.42466 6045 ft 269 kts 264°
2026-04-26 20:34 52.00823 0.39444 6027 ft 273 kts 264°
2026-04-26 20:35 52.00637 0.36372 5998 ft 269 kts 264°
2026-04-26 20:35 52.00459 0.33407 5981 ft 257 kts 264°
2026-04-26 20:35 52.00292 0.30579 5934 ft 247 kts 264°
2026-04-26 20:35 52.00021 0.27922 5833 ft 238 kts 246°
2026-04-26 20:36 51.99097 0.25780 5769 ft 227 kts 226°
2026-04-26 20:36 51.97984 0.24025 5649 ft 219 kts 223°
2026-04-26 20:36 51.96870 0.22353 5426 ft 217 kts 222°
2026-04-26 20:36 51.95764 0.20687 5169 ft 217 kts 223°
2026-04-26 20:37 51.94667 0.19007 4915 ft 216 kts 223°
2026-04-26 20:37 51.93591 0.17350 4672 ft 215 kts 223°
2026-04-26 20:37 51.92508 0.15677 4424 ft 214 kts 223°
2026-04-26 20:37 51.91428 0.14018 4184 ft 213 kts 223°
2026-04-26 20:38 51.90365 0.12386 4052 ft 213 kts 223°
2026-04-26 20:38 51.89269 0.10702 4022 ft 216 kts 223°
2026-04-26 20:38 51.88189 0.09040 4030 ft 212 kts 223°
2026-04-26 20:38 51.87141 0.07427 4004 ft 208 kts 223°
2026-04-26 20:39 51.86088 0.05802 4004 ft 210 kts 223°
2026-04-26 20:39 51.85379 0.04708 4011 ft 213 kts 223°
2026-04-26 20:39 51.83959 0.02518 3982 ft 204 kts 223°
2026-04-26 20:39 51.82981 0.01007 3973 ft 188 kts 223°
2026-04-26 20:40 51.82048 -0.00437 4000 ft 185 kts 223°
2026-04-26 20:40 51.81107 -0.01892 4015 ft 192 kts 223°
2026-04-26 20:40 51.80126 -0.03404 3998 ft 196 kts 223°
2026-04-26 20:40 51.79051 -0.04713 3969 ft 192 kts 202°
2026-04-26 20:41 51.77766 -0.04907 3971 ft 185 kts 161°
2026-04-26 20:41 51.76730 -0.03736 3990 ft 186 kts 122°
2026-04-26 20:41 51.76360 -0.01753 3973 ft 185 kts 93°
2026-04-26 20:41 51.76304 0.00276 3739 ft 181 kts 91°
2026-04-26 20:42 51.76267 0.02315 3371 ft 182 kts 91°
2026-04-26 20:42 51.76370 0.04340 2951 ft 183 kts 66°
2026-04-26 20:42 51.77171 0.05917 2684 ft 179 kts 46°
2026-04-26 20:42 51.77943 0.07425 2548 ft 169 kts 50°
2026-04-26 20:43 51.78732 0.08753 2506 ft 160 kts 44°
2026-04-26 20:43 51.79546 0.09995 2527 ft 165 kts 44°
2026-04-26 20:43 51.80386 0.11262 2375 ft 165 kts 44°
2026-04-26 20:43 51.81229 0.12532 2152 ft 162 kts 43°
2026-04-26 20:44 51.82016 0.13717 1933 ft 149 kts 44°
2026-04-26 20:44 51.82759 0.14836 1738 ft 144 kts 44°
2026-04-26 20:44 51.83490 0.15940 1552 ft 146 kts 44°
2026-04-26 20:44 51.84239 0.17068 1339 ft 147 kts 45°
2026-04-26 20:45 51.84989 0.18196 1120 ft 147 kts 46°
2026-04-26 20:45 51.85729 0.19311 938 ft 145 kts 46°
2026-04-26 20:45 51.86470 0.20428 722 ft 144 kts 47°
2026-04-26 20:45 51.87189 0.21505 503 ft 140 kts 47°
2026-04-26 20:46 51.87886 0.22550 350 ft 135 kts 46°
2026-04-26 20:46 51.88503 0.23478 337 ft 101 kts 41°
2026-04-26 20:46 51.88909 0.24086 340 ft 57 kts 43°
2026-04-26 20:46 51.89087 0.24465 339 ft 37 kts 67°
2026-04-26 20:47 51.89149 0.24716 334 ft 15 kts 69°
2026-04-26 20:47 51.89171 0.24823 338 ft 15 kts 82°
2026-04-26 20:47 51.89177 0.24976 350 ft 11 kts 45°
2026-04-26 20:47 51.89228 0.25076 348 ft 12 kts 63°
2026-04-26 20:48 51.89270 0.25185 347 ft 11 kts 51°
2026-04-26 20:48 51.89326 0.25272 345 ft 12 kts 42°
2026-04-26 20:48 51.89399 0.25379 349 ft 15 kts 43°
2026-04-26 20:48 51.89396 0.25522 354 ft 11 kts 127°
2026-04-26 20:49 51.89359 0.25617 349 ft 9 kts 126°
2026-04-26 20:49 51.89338 0.25674 349 ft 0 kts 87°
2026-04-26 20:49 51.89339 0.25681 350 ft 2 kts 74°
2026-04-26 20:49 51.89346 0.25699 349 ft 2 kts 56°
2026-04-26 20:50 51.89354 0.25715 350 ft 2 kts 47°
2026-04-26 20:50 51.89363 0.25729 348 ft 2 kts 42°
2026-04-26 20:50 51.89365 0.25732 348 ft 0 kts 42°